Regional Weather Roundup
Issued by NWS

Home | Current Version | Previous Version | Text Only | Print | Product List | Glossary On
Versions: 1 2 3 4 5 6 7 8 9 10 11 12 13 14 15 16 17 18 19 20 21 22 23 24 25 26 27 28 29 30 31 32 33 34 35 36 37 38 39 40 41 42 43 44 45 46 47 48 49 50
000
ASUS45 KBOI 011010
RWRID
WEATHER ROUNDUP FOR IDAHO
NATIONAL WEATHER SERVICE BOISE ID
400 AM MDT FRI AUG 01 2014

NOTE: "FAIR" INDICATES FEW OR NO CLOUDS BELOW 12000 FEET
WITH NO SIGNIFICANT WEATHER AND/OR OBSTRUCTIONS TO VISIBILITY

IDZ012-014-011100-
SOUTHWEST IDAHO


CITY           SKY/WX    TMP DP  RH WIND       PRES   REMARKS
BOISE          MOCLDY    69  49  48 NW3       30.10R
CALDWELL       MOCLDY    66  48  52 NE6       30.08F
MOUNTAIN HOME  CLEAR     66  49  53 N2        30.08S
$$

IDZ016-017-011100-
SOUTHCENTRAL IDAHO


CITY           SKY/WX    TMP DP  RH WIND       PRES   REMARKS
BURLEY         MOCLDY    58  50  75 SW3       30.13R
JEROME         PTCLDY    61  51  70 N7        30.14R
TWIN FALLS     PTCLDY    65  43  44 S12       30.13S
$$

IDZ019>023-011100-
SOUTHEAST IDAHO


CITY           SKY/WX    TMP DP  RH WIND       PRES   REMARKS
IDAHO FALLS    PTCLDY    54  48  80 N6        30.19R
POCATELLO      CLEAR     60  51  72 N5        30.17R
REXBURG        CLEAR     55  46  71 NE6       30.20R
$$

IDZ006-010-011-018-031-032-011100-
CENTRAL IDAHO MOUNTAINS


CITY           SKY/WX    TMP DP  RH WIND       PRES   REMARKS
MCCALL         MOCLDY    58  45  62 S5        30.19F
HAILEY         MOCLDY    61  52  72 NW9       30.25S
STANLEY          N/A     48  43  82 CALM      30.34F
SALMON         MOCLDY    61  52  72 CALM      30.17S
CHALLIS        CLOUDY    60  47  61 SW3       30.24S
$$

IDZ002-004-006-007-026-011100-
NORTHERN IDAHO


CITY           SKY/WX    TMP DP  RH WIND       PRES   REMARKS
LEWISTON       CLOUDY    79  45  29 S3        29.97S
LOWELL           N/A     63  55  75 NW3       30.07R
COEUR D`ALENE  MOCLDY    61  46  59 E8        30.03S
MULLAN PASS    MOCLDY    69  28  21 NW5       30.28F
$$


USA.gov is the U.S. government's official web portal to all federal, state and local government web resources and services.